Time,TemperatureF,DewpointF,PressureIn,WindDirection,WindDirectionDegrees,WindSpeedMPH,WindSpeedGustMPH,Humidity,HourlyPrecipIn,Conditions,Clouds,dailyrainin,SoftwareType,DateUTC
2013-02-06 00:02:00,31.6,20.5,23.87,West,270,36.0,55.0,63,0.02,,,0.02,meteohub,2013-02-06 07:02:00,
2013-02-06 00:07:00,31.6,20.5,23.87,West,270,36.0,55.0,63,0.02,,,0.02,meteohub,2013-02-06 07:07:00,
2013-02-06 00:12:00,31.6,20.5,23.87,West,270,41.0,49.0,63,0.02,,,0.02,meteohub,2013-02-06 07:12:00,
2013-02-06 00:17:00,31.8,20.7,23.87,West,270,40.0,52.0,63,0.02,,,0.02,meteohub,2013-02-06 07:17:00,
2013-02-06 00:22:00,31.6,20.5,23.87,West,270,38.0,52.0,63,0.02,,,0.02,meteohub,2013-02-06 07:22:00,
2013-02-06 00:27:00,31.6,20.5,23.88,West,270,38.0,52.0,63,0.02,,,0.02,meteohub,2013-02-06 07:27:00,
2013-02-06 00:32:00,31.1,19.9,23.88,NW,315,30.0,46.0,63,0.02,,,0.02,meteohub,2013-02-06 07:32:00,
2013-02-06 00:37:00,31.3,20.1,23.88,West,270,40.0,44.0,63,0.02,,,0.02,meteohub,2013-02-06 07:37:00,
2013-02-06 00:42:00,30.9,19.8,23.89,NW,315,29.0,41.0,63,0.01,,,0.02,meteohub,2013-02-06 07:42:00,
2013-02-06 00:47:00,31.3,19.4,23.89,West,270,45.0,45.0,61,0.01,,,0.02,meteohub,2013-02-06 07:47:00,
2013-02-06 00:52:00,31.3,18.7,23.90,NW,315,38.0,49.0,59,0.01,,,0.02,meteohub,2013-02-06 07:52:00,
2013-02-06 00:57:00,30.7,18.9,23.91,NW,315,27.0,49.0,61,0.01,,,0.02,meteohub,2013-02-06 07:57:00,
2013-02-06 01:02:00,31.1,16.3,23.90,WNW,293,36.0,49.0,54,0.00,,,0.02,meteohub,2013-02-06 08:02:00,
2013-02-06 01:07:00,31.1,16.3,23.90,WNW,293,36.0,40.0,54,0.00,,,0.02,meteohub,2013-02-06 08:07:00,
2013-02-06 01:12:00,30.7,14.7,23.91,NW,315,22.0,36.0,51,0.00,,,0.02,meteohub,2013-02-06 08:12:00,
2013-02-06 01:17:00,29.7,15.1,23.91,NW,315,30.0,39.0,54,0.00,,,0.02,meteohub,2013-02-06 08:17:00,
2013-02-06 01:22:00,30.0,14.5,23.91,NW,315,40.0,40.0,52,0.00,,,0.02,meteohub,2013-02-06 08:22:00,
2013-02-06 01:27:00,29.5,14.5,23.91,NW,315,35.0,40.0,53,0.00,,,0.02,meteohub,2013-02-06 08:27:00,
2013-02-06 01:32:00,29.3,14.7,23.91,NW,315,34.0,40.0,54,0.00,,,0.02,meteohub,2013-02-06 08:32:00,
2013-02-06 01:37:00,29.7,15.1,23.91,NW,315,34.0,40.0,54,0.00,,,0.02,meteohub,2013-02-06 08:37:00,
2013-02-06 01:42:00,29.1,15.4,23.93,NW,315,29.0,43.0,56,0.00,,,0.02,meteohub,2013-02-06 08:42:00,
2013-02-06 01:47:00,29.3,16.0,23.94,NW,315,28.0,43.0,57,0.00,,,0.02,meteohub,2013-02-06 08:47:00,
2013-02-06 01:52:00,29.5,15.8,23.94,NW,315,21.0,37.0,56,0.00,,,0.02,meteohub,2013-02-06 08:52:00,
2013-02-06 01:57:00,29.5,16.5,23.94,NW,315,25.0,31.0,58,0.00,,,0.02,meteohub,2013-02-06 08:57:00,
2013-02-06 02:02:00,29.1,16.5,23.93,NW,315,24.0,28.0,59,0.00,,,0.02,meteohub,2013-02-06 09:02:00,
2013-02-06 02:07:00,29.1,16.5,23.91,NW,315,24.0,26.0,59,0.00,,,0.02,meteohub,2013-02-06 09:07:00,
2013-02-06 02:12:00,29.3,16.3,23.92,West,270,33.0,33.0,58,0.00,,,0.02,meteohub,2013-02-06 09:12:00,
2013-02-06 02:17:00,29.5,16.2,23.93,West,270,28.0,33.0,57,0.00,,,0.02,meteohub,2013-02-06 09:17:00,
2013-02-06 02:22:00,29.1,16.2,23.94,NW,315,28.0,34.0,58,0.00,,,0.02,meteohub,2013-02-06 09:22:00,
2013-02-06 02:27:00,29.1,16.2,23.95,West,270,28.0,34.0,58,0.00,,,0.02,meteohub,2013-02-06 09:27:00,
2013-02-06 02:32:00,28.9,16.3,23.95,NW,315,28.0,34.0,59,0.00,,,0.02,meteohub,2013-02-06 09:32:00,
2013-02-06 02:37:00,28.6,16.5,23.95,NW,315,25.0,33.0,60,0.00,,,0.02,meteohub,2013-02-06 09:37:00,
2013-02-06 02:42:00,28.6,16.5,23.95,West,270,25.0,33.0,60,0.00,,,0.02,meteohub,2013-02-06 09:42:00,
2013-02-06 02:47:00,28.4,16.7,23.94,NW,315,27.0,30.0,61,0.00,,,0.02,meteohub,2013-02-06 09:47:00,
2013-02-06 02:52:00,28.6,16.2,23.94,West,270,31.0,33.0,59,0.00,,,0.02,meteohub,2013-02-06 09:52:00,
2013-02-06 02:57:00,28.8,16.2,23.93,West,270,34.0,34.0,59,0.00,,,0.02,meteohub,2013-02-06 09:57:00,
2013-02-06 03:02:00,28.8,16.2,23.94,West,270,33.0,34.0,59,0.00,,,0.02,meteohub,2013-02-06 10:02:00,
2013-02-06 03:07:00,28.8,16.2,23.94,West,270,33.0,34.0,59,0.00,,,0.02,meteohub,2013-02-06 10:07:00,
2013-02-06 03:12:00,28.6,16.2,23.96,West,270,26.0,34.0,59,0.00,,,0.02,meteohub,2013-02-06 10:12:00,
2013-02-06 03:17:00,28.2,15.8,23.95,West,270,27.0,33.0,59,0.00,,,0.02,meteohub,2013-02-06 10:17:00,
2013-02-06 03:22:00,28.6,15.6,23.95,NW,315,34.0,34.0,58,0.00,,,0.02,meteohub,2013-02-06 10:22:00,
2013-02-06 03:27:00,28.6,15.6,23.94,West,270,35.0,35.0,58,0.00,,,0.02,meteohub,2013-02-06 10:27:00,
2013-02-06 03:32:00,28.4,16.0,23.94,NW,315,30.0,35.0,59,0.00,,,0.02,meteohub,2013-02-06 10:32:00,
2013-02-06 03:37:00,28.2,15.8,23.94,NW,315,30.0,35.0,59,0.00,,,0.02,meteohub,2013-02-06 10:37:00,
2013-02-06 03:42:00,27.9,15.4,23.95,NW,315,30.0,35.0,59,0.00,,,0.02,meteohub,2013-02-06 10:42:00,
2013-02-06 03:47:00,27.7,15.6,23.96,NW,315,29.0,34.0,60,0.00,,,0.02,meteohub,2013-02-06 10:47:00,
2013-02-06 03:52:00,28.2,14.9,23.96,NW,315,32.0,36.0,57,0.00,,,0.02,meteohub,2013-02-06 10:52:00,
2013-02-06 04:02:00,27.7,15.3,23.96,NW,315,23.0,37.0,59,0.00,,,0.02,meteohub,2013-02-06 11:02:00,
2013-02-06 04:07:00,27.7,15.3,23.96,NW,315,23.0,37.0,59,0.00,,,0.02,meteohub,2013-02-06 11:07:00,
2013-02-06 04:12:00,28.0,15.3,23.96,West,270,35.0,36.0,58,0.00,,,0.02,meteohub,2013-02-06 11:12:00,
2013-02-06 04:17:00,27.5,15.1,23.96,West,270,24.0,35.0,59,0.00,,,0.02,meteohub,2013-02-06 11:17:00,
2013-02-06 04:22:00,27.9,15.1,23.97,West,270,26.0,35.0,58,0.00,,,0.02,meteohub,2013-02-06 11:22:00,
2013-02-06 04:27:00,27.9,15.1,23.96,West,270,29.0,35.0,58,0.00,,,0.02,meteohub,2013-02-06 11:27:00,
2013-02-06 04:32:00,27.9,15.1,23.97,WNW,293,27.0,32.0,58,0.00,,,0.02,meteohub,2013-02-06 11:32:00,
2013-02-06 04:37:00,27.7,15.3,23.97,NW,315,21.0,32.0,59,0.00,,,0.02,meteohub,2013-02-06 11:37:00,
2013-02-06 04:42:00,27.9,15.1,23.97,West,270,28.0,32.0,58,0.00,,,0.02,meteohub,2013-02-06 11:42:00,
2013-02-06 04:47:00,27.9,15.1,23.97,West,270,26.0,30.0,58,0.00,,,0.02,meteohub,2013-02-06 11:47:00,
2013-02-06 04:52:00,27.3,14.9,23.98,NW,315,23.0,30.0,59,0.00,,,0.02,meteohub,2013-02-06 11:52:00,
2013-02-06 04:57:00,27.9,15.4,23.97,NW,315,30.0,30.0,59,0.00,,,0.02,meteohub,2013-02-06 11:57:00,
2013-02-06 05:02:00,27.7,15.3,23.97,NW,315,28.0,30.0,59,0.00,,,0.02,meteohub,2013-02-06 12:02:00,
2013-02-06 05:07:00,27.7,15.3,23.98,NW,315,28.0,30.0,59,0.00,,,0.02,meteohub,2013-02-06 12:07:00,
2013-02-06 05:12:00,28.0,15.3,23.99,West,270,24.0,30.0,58,0.00,,,0.02,meteohub,2013-02-06 12:12:00,
2013-02-06 05:17:00,27.7,15.3,23.98,West,270,21.0,28.0,59,0.00,,,0.02,meteohub,2013-02-06 12:17:00,
2013-02-06 05:22:00,27.5,15.1,23.98,NW,315,24.0,28.0,59,0.00,,,0.02,meteohub,2013-02-06 12:22:00,
2013-02-06 05:27:00,27.5,15.1,23.98,West,270,22.0,27.0,59,0.00,,,0.02,meteohub,2013-02-06 12:27:00,
2013-02-06 05:32:00,27.9,15.4,23.99,NW,315,25.0,27.0,59,0.00,,,0.02,meteohub,2013-02-06 12:32:00,
2013-02-06 05:37:00,27.7,15.3,23.98,NW,315,27.0,28.0,59,0.00,,,0.02,meteohub,2013-02-06 12:37:00,
2013-02-06 05:42:00,27.7,15.3,23.98,NW,315,25.0,28.0,59,0.00,,,0.02,meteohub,2013-02-06 12:42:00,
2013-02-06 05:47:00,27.7,15.3,23.98,West,270,29.0,29.0,59,0.00,,,0.02,meteohub,2013-02-06 12:47:00,
2013-02-06 05:52:00,27.5,15.4,23.99,West,270,20.0,30.0,60,0.00,,,0.02,meteohub,2013-02-06 12:52:00,
2013-02-06 05:57:00,27.3,15.3,23.99,West,270,23.0,30.0,60,0.00,,,0.02,meteohub,2013-02-06 12:57:00,
2013-02-06 06:02:00,27.1,15.1,23.99,West,270,27.0,30.0,60,0.00,,,0.02,meteohub,2013-02-06 13:02:00,
2013-02-06 06:07:00,27.1,15.1,23.98,West,270,27.0,27.0,60,0.00,,,0.02,meteohub,2013-02-06 13:07:00,
2013-02-06 06:12:00,27.0,15.3,23.99,West,270,30.0,30.0,61,0.00,,,0.02,meteohub,2013-02-06 13:12:00,
2013-02-06 06:17:00,27.0,15.3,23.99,West,270,29.0,31.0,61,0.00,,,0.02,meteohub,2013-02-06 13:17:00,
2013-02-06 06:22:00,26.6,15.6,23.99,West,270,26.0,32.0,63,0.00,,,0.02,meteohub,2013-02-06 13:22:00,
2013-02-06 06:27:00,26.8,15.8,23.99,West,270,26.0,32.0,63,0.00,,,0.02,meteohub,2013-02-06 13:27:00,
2013-02-06 06:32:00,26.8,15.8,23.99,West,270,25.0,32.0,63,0.00,,,0.02,meteohub,2013-02-06 13:32:00,
2013-02-06 06:37:00,27.1,15.8,24.00,West,270,24.0,27.0,62,0.00,,,0.02,meteohub,2013-02-06 13:37:00,
2013-02-06 06:42:00,27.0,15.6,24.00,West,270,23.0,28.0,62,0.00,,,0.02,meteohub,2013-02-06 13:42:00,
2013-02-06 06:47:00,26.8,15.8,24.00,West,270,22.0,28.0,63,0.00,,,0.02,meteohub,2013-02-06 13:47:00,
2013-02-06 06:52:00,26.8,15.8,24.00,WSW,248,21.0,28.0,63,0.00,,,0.02,meteohub,2013-02-06 13:52:00,
2013-02-06 06:57:00,26.4,16.0,24.00,West,270,18.0,26.0,64,0.00,,,0.02,meteohub,2013-02-06 13:57:00,
2013-02-06 07:02:00,26.4,16.0,24.01,West,270,22.0,26.0,64,0.00,,,0.02,meteohub,2013-02-06 14:02:00,
2013-02-06 07:07:00,26.4,16.0,24.00,West,270,22.0,25.0,64,0.00,,,0.02,meteohub,2013-02-06 14:07:00,
2013-02-06 07:12:00,26.2,16.2,24.00,West,270,26.0,26.0,65,0.00,,,0.02,meteohub,2013-02-06 14:12:00,
2013-02-06 07:17:00,26.4,16.3,24.00,West,270,26.0,30.0,65,0.00,,,0.02,meteohub,2013-02-06 14:17:00,
2013-02-06 07:22:00,26.2,16.5,24.00,North,0,31.0,31.0,66,0.00,,,0.02,meteohub,2013-02-06 14:22:00,
2013-02-06 07:27:00,26.2,16.5,24.00,West,270,30.0,31.0,66,0.00,,,0.02,meteohub,2013-02-06 14:27:00,
2013-02-06 07:32:00,26.4,16.3,23.99,West,270,37.0,37.0,65,0.00,,,0.02,meteohub,2013-02-06 14:32:00,
2013-02-06 07:37:00,26.4,16.3,24.00,West,270,28.0,37.0,65,0.00,,,0.02,meteohub,2013-02-06 14:37:00,
2013-02-06 07:42:00,26.4,16.5,23.99,NW,315,35.0,37.0,66,0.00,,,0.02,meteohub,2013-02-06 14:42:00,
2013-02-06 07:47:00,26.4,16.3,23.99,West,270,34.0,37.0,65,0.00,,,0.02,meteohub,2013-02-06 14:47:00,
2013-02-06 07:52:00,26.4,16.3,23.99,West,270,35.0,36.0,65,0.00,,,0.02,meteohub,2013-02-06 14:52:00,
2013-02-06 07:57:00,26.6,16.0,23.99,West,270,36.0,36.0,64,0.00,,,0.02,meteohub,2013-02-06 14:57:00,
2013-02-06 08:02:00,26.8,16.2,24.00,NW,315,27.0,36.0,64,0.00,,,0.02,meteohub,2013-02-06 15:02:00,
2013-02-06 08:07:00,26.8,16.2,24.01,NW,315,27.0,36.0,64,0.00,,,0.02,meteohub,2013-02-06 15:07:00,
2013-02-06 08:12:00,27.9,16.2,24.00,West,270,28.0,36.0,61,0.00,,,0.02,meteohub,2013-02-06 15:12:00,
2013-02-06 08:17:00,28.0,16.3,24.00,West,270,30.0,31.0,61,0.00,,,0.02,meteohub,2013-02-06 15:17:00,
2013-02-06 08:22:00,28.4,16.3,24.01,NW,315,31.0,31.0,60,0.00,,,0.02,meteohub,2013-02-06 15:22:00,
2013-02-06 08:27:00,28.4,16.3,24.01,West,270,25.0,31.0,60,0.00,,,0.02,meteohub,2013-02-06 15:27:00,
2013-02-06 08:32:00,28.6,16.9,24.01,SW,225,27.0,31.0,61,0.00,,,0.02,meteohub,2013-02-06 15:32:00,
2013-02-06 08:37:00,28.4,16.7,24.01,West,270,28.0,31.0,61,0.00,,,0.02,meteohub,2013-02-06 15:37:00,
2013-02-06 08:42:00,28.4,17.1,24.00,NW,315,34.0,36.0,62,0.00,,,0.02,meteohub,2013-02-06 15:42:00,
2013-02-06 08:47:00,28.6,17.2,24.00,West,270,34.0,36.0,62,0.00,,,0.02,meteohub,2013-02-06 15:47:00,
2013-02-06 08:52:00,28.6,17.2,24.01,West,270,32.0,39.0,62,0.00,,,0.02,meteohub,2013-02-06 15:52:00,
2013-02-06 08:57:00,29.1,16.9,24.01,West,270,30.0,39.0,60,0.00,,,0.02,meteohub,2013-02-06 15:57:00,
2013-02-06 09:02:00,29.3,16.7,24.01,West,270,29.0,37.0,59,0.00,,,0.02,meteohub,2013-02-06 16:02:00,
2013-02-06 09:07:00,29.3,16.7,24.02,West,270,29.0,36.0,59,0.00,,,0.02,meteohub,2013-02-06 16:07:00,
2013-02-06 09:12:00,28.8,18.1,24.02,West,270,31.0,36.0,64,0.00,,,0.02,meteohub,2013-02-06 16:12:00,
2013-02-06 09:17:00,27.9,18.7,24.02,West,270,25.0,33.0,68,0.00,,,0.02,meteohub,2013-02-06 16:17:00,
2013-02-06 09:22:00,27.9,18.7,24.02,NW,315,27.0,33.0,68,0.00,,,0.02,meteohub,2013-02-06 16:22:00,
2013-02-06 09:27:00,28.0,18.9,24.03,West,270,21.0,33.0,68,0.00,,,0.02,meteohub,2013-02-06 16:27:00,
2013-02-06 09:32:00,28.0,18.9,24.02,West,270,27.0,27.0,68,0.00,,,0.02,meteohub,2013-02-06 16:32:00,
2013-02-06 09:37:00,28.4,18.5,24.03,West,270,28.0,28.0,66,0.00,,,0.02,meteohub,2013-02-06 16:37:00,
2013-02-06 09:42:00,28.6,18.7,24.02,West,270,27.0,28.0,66,0.00,,,0.02,meteohub,2013-02-06 16:42:00,
2013-02-06 09:47:00,28.6,18.7,24.02,West,270,29.0,33.0,66,0.00,,,0.02,meteohub,2013-02-06 16:47:00,
2013-02-06 09:52:00,28.8,18.1,24.03,West,270,34.0,34.0,64,0.00,,,0.02,meteohub,2013-02-06 16:52:00,
2013-02-06 09:57:00,28.9,18.3,24.02,NW,315,32.0,34.0,64,0.00,,,0.02,meteohub,2013-02-06 16:57:00,
2013-02-06 10:02:00,28.9,18.0,24.02,NW,315,33.0,36.0,63,0.00,,,0.02,meteohub,2013-02-06 17:02:00,
2013-02-06 10:07:00,28.9,18.0,24.03,NW,315,33.0,36.0,63,0.00,,,0.02,meteohub,2013-02-06 17:07:00,
2013-02-06 10:12:00,28.9,18.3,24.03,West,270,27.0,33.0,64,0.00,,,0.02,meteohub,2013-02-06 17:12:00,
2013-02-06 10:22:00,29.1,18.9,24.03,West,270,31.0,34.0,65,0.00,,,0.02,meteohub,2013-02-06 17:22:00,
2013-02-06 10:32:00,28.8,19.6,24.03,West,270,33.0,33.0,68,0.00,,,0.02,meteohub,2013-02-06 17:32:00,
2013-02-06 10:37:00,28.8,19.9,24.03,NW,315,28.0,33.0,69,0.00,,,0.02,meteohub,2013-02-06 17:37:00,
2013-02-06 10:42:00,28.8,19.6,24.03,West,270,30.0,33.0,68,0.00,,,0.02,meteohub,2013-02-06 17:42:00,
2013-02-06 10:47:00,28.6,19.8,24.04,West,270,29.0,33.0,69,0.00,,,0.02,meteohub,2013-02-06 17:47:00,
2013-02-06 10:52:00,28.4,20.1,24.04,West,270,23.0,31.0,71,0.00,,,0.02,meteohub,2013-02-06 17:52:00,
2013-02-06 10:57:00,28.6,20.7,24.04,West,270,22.0,30.0,72,0.00,,,0.02,meteohub,2013-02-06 17:57:00,
2013-02-06 11:02:00,28.6,20.7,24.04,West,270,19.0,29.0,72,0.00,,,0.02,meteohub,2013-02-06 18:02:00,
2013-02-06 11:07:00,28.6,20.7,24.04,West,270,19.0,24.0,72,0.00,,,0.02,meteohub,2013-02-06 18:07:00,
2013-02-06 11:12:00,28.8,20.5,24.04,West,270,21.0,28.0,71,0.00,,,0.02,meteohub,2013-02-06 18:12:00,
2013-02-06 11:17:00,28.8,19.6,24.03,West,270,30.0,30.0,68,0.00,,,0.02,meteohub,2013-02-06 18:17:00,
2013-02-06 11:27:00,28.6,18.3,24.02,West,270,31.0,39.0,65,0.00,,,0.02,meteohub,2013-02-06 18:27:00,
2013-02-06 11:32:00,28.9,18.3,24.01,NW,315,38.0,39.0,64,0.00,,,0.02,meteohub,2013-02-06 18:32:00,
2013-02-06 11:37:00,28.8,18.1,24.01,NW,315,35.0,40.0,64,0.00,,,0.02,meteohub,2013-02-06 18:37:00,
2013-02-06 11:42:00,28.6,18.3,24.01,NW,315,37.0,40.0,65,0.00,,,0.02,meteohub,2013-02-06 18:42:00,
2013-02-06 11:47:00,28.6,18.3,24.02,NW,315,33.0,40.0,65,0.00,,,0.02,meteohub,2013-02-06 18:47:00,
2013-02-06 11:52:00,28.6,18.3,24.03,NW,315,34.0,37.0,65,0.00,,,0.02,meteohub,2013-02-06 18:52:00,
2013-02-06 11:57:00,29.3,18.0,24.03,West,270,28.0,37.0,62,0.00,,,0.02,meteohub,2013-02-06 18:57:00,
2013-02-06 12:02:00,29.5,17.8,24.03,West,270,36.0,36.0,61,0.00,,,0.02,meteohub,2013-02-06 19:02:00,
2013-02-06 12:07:00,29.5,17.8,24.03,West,270,36.0,36.0,61,0.00,,,0.02,meteohub,2013-02-06 19:07:00,
2013-02-06 12:12:00,30.0,17.8,24.03,West,270,30.0,36.0,60,0.00,,,0.02,meteohub,2013-02-06 19:12:00,
2013-02-06 12:17:00,30.0,17.4,24.03,West,270,29.0,39.0,59,0.00,,,0.02,meteohub,2013-02-06 19:17:00,
2013-02-06 12:22:00,30.2,17.6,24.03,West,270,30.0,39.0,59,0.00,,,0.02,meteohub,2013-02-06 19:22:00,
2013-02-06 12:27:00,30.2,17.2,24.03,West,270,37.0,39.0,58,0.00,,,0.02,meteohub,2013-02-06 19:27:00,
2013-02-06 12:32:00,30.4,17.4,24.03,West,270,31.0,37.0,58,0.00,,,0.02,meteohub,2013-02-06 19:32:00,
2013-02-06 12:37:00,31.1,17.2,24.03,NW,315,30.0,37.0,56,0.00,,,0.02,meteohub,2013-02-06 19:37:00,
2013-02-06 12:42:00,31.8,17.1,24.03,West,270,30.0,37.0,54,0.00,,,0.02,meteohub,2013-02-06 19:42:00,
2013-02-06 12:47:00,31.6,17.2,24.03,West,270,34.0,38.0,55,0.00,,,0.02,meteohub,2013-02-06 19:47:00,
2013-02-06 12:52:00,30.9,17.4,24.03,West,270,30.0,38.0,57,0.00,,,0.02,meteohub,2013-02-06 19:52:00,
2013-02-06 12:57:00,31.3,17.1,24.03,NW,315,33.0,38.0,55,0.00,,,0.02,meteohub,2013-02-06 19:57:00,
2013-02-06 13:02:00,32.0,18.1,24.03,West,270,21.0,34.0,56,0.00,,,0.02,meteohub,2013-02-06 20:02:00,
2013-02-06 13:07:00,32.0,18.1,24.02,West,270,21.0,34.0,56,0.00,,,0.02,meteohub,2013-02-06 20:07:00,
2013-02-06 13:12:00,32.4,17.1,24.02,West,270,36.0,36.0,53,0.00,,,0.02,meteohub,2013-02-06 20:12:00,
2013-02-06 13:17:00,32.5,17.2,24.03,West,270,27.0,36.0,53,0.00,,,0.02,meteohub,2013-02-06 20:17:00,
2013-02-06 13:22:00,32.5,16.9,24.04,West,270,26.0,36.0,52,0.00,,,0.02,meteohub,2013-02-06 20:22:00,
2013-02-06 13:27:00,32.7,17.4,24.04,NW,315,23.0,36.0,53,0.00,,,0.02,meteohub,2013-02-06 20:27:00,
2013-02-06 13:32:00,32.9,17.2,24.04,NW,315,24.0,30.0,52,0.00,,,0.02,meteohub,2013-02-06 20:32:00,
2013-02-06 13:37:00,33.3,17.1,24.05,West,270,18.0,29.0,51,0.00,,,0.02,meteohub,2013-02-06 20:37:00,
2013-02-06 13:42:00,32.9,16.3,24.04,NW,315,24.0,29.0,50,0.00,,,0.02,meteohub,2013-02-06 20:42:00,
2013-02-06 13:47:00,33.4,16.3,24.04,NW,315,21.0,29.0,49,0.00,,,0.02,meteohub,2013-02-06 20:47:00,
2013-02-06 13:52:00,33.4,16.9,24.04,WNW,293,22.0,29.0,50,0.00,,,0.02,meteohub,2013-02-06 20:52:00,
2013-02-06 13:57:00,32.4,15.3,24.04,West,270,25.0,33.0,49,0.00,,,0.02,meteohub,2013-02-06 20:57:00,
2013-02-06 14:02:00,32.5,17.2,24.04,West,270,27.0,33.0,53,0.00,,,0.02,meteohub,2013-02-06 21:02:00,
2013-02-06 14:07:00,32.5,17.2,24.04,West,270,27.0,33.0,53,0.00,,,0.02,meteohub,2013-02-06 21:07:00,
2013-02-06 14:12:00,33.4,17.8,24.04,West,270,23.0,33.0,52,0.00,,,0.02,meteohub,2013-02-06 21:12:00,
2013-02-06 14:17:00,33.3,17.1,24.04,West,270,27.0,29.0,51,0.00,,,0.02,meteohub,2013-02-06 21:17:00,
2013-02-06 14:22:00,33.1,17.8,24.04,West,270,28.0,30.0,53,0.00,,,0.02,meteohub,2013-02-06 21:22:00,
2013-02-06 14:27:00,32.2,17.4,24.04,West,270,27.0,33.0,54,0.00,,,0.02,meteohub,2013-02-06 21:27:00,
2013-02-06 14:32:00,32.2,17.4,24.04,NW,315,28.0,33.0,54,0.00,,,0.02,meteohub,2013-02-06 21:32:00,
2013-02-06 14:37:00,31.8,18.0,24.05,NW,315,27.0,33.0,56,0.00,,,0.02,meteohub,2013-02-06 21:37:00,
2013-02-06 14:42:00,31.5,17.2,24.05,NW,315,30.0,30.0,55,0.00,,,0.02,meteohub,2013-02-06 21:42:00,
2013-02-06 14:52:00,31.8,16.7,24.04,West,270,30.0,34.0,53,0.00,,,0.02,meteohub,2013-02-06 21:52:00,
2013-02-06 14:57:00,32.0,16.3,24.05,NW,315,32.0,34.0,52,0.00,,,0.02,meteohub,2013-02-06 21:57:00,
2013-02-06 15:02:00,31.6,16.0,24.04,NW,315,30.0,34.0,52,0.00,,,0.02,meteohub,2013-02-06 22:02:00,
2013-02-06 15:12:00,32.2,17.4,24.05,West,270,29.0,34.0,54,0.00,,,0.02,meteohub,2013-02-06 22:12:00,
2013-02-06 15:17:00,32.5,17.8,24.05,West,270,25.0,32.0,54,0.00,,,0.02,meteohub,2013-02-06 22:17:00,
2013-02-06 15:22:00,32.2,17.4,24.05,West,270,29.0,34.0,54,0.00,,,0.02,meteohub,2013-02-06 22:22:00,
2013-02-06 15:27:00,32.2,18.3,24.05,West,270,25.0,34.0,56,0.00,,,0.02,meteohub,2013-02-06 22:27:00,
2013-02-06 15:32:00,32.4,17.6,24.05,West,270,24.0,34.0,54,0.00,,,0.02,meteohub,2013-02-06 22:32:00,
2013-02-06 15:37:00,32.0,17.2,24.05,NW,315,33.0,33.0,54,0.00,,,0.02,meteohub,2013-02-06 22:37:00,
2013-02-06 15:42:00,31.8,16.7,24.05,WNW,293,30.0,33.0,53,0.00,,,0.02,meteohub,2013-02-06 22:42:00,
2013-02-06 15:47:00,31.6,16.9,24.05,West,270,33.0,33.0,54,0.00,,,0.02,meteohub,2013-02-06 22:47:00,
2013-02-06 15:52:00,31.5,17.6,24.04,NW,315,30.0,34.0,56,0.00,,,0.02,meteohub,2013-02-06 22:52:00,
2013-02-06 15:57:00,31.6,18.1,24.04,West,270,30.0,34.0,57,0.00,,,0.02,meteohub,2013-02-06 22:57:00,
2013-02-06 16:02:00,31.3,17.4,24.04,NW,315,32.0,34.0,56,0.00,,,0.02,meteohub,2013-02-06 23:02:00,
2013-02-06 16:07:00,31.3,17.4,24.05,NW,315,32.0,32.0,56,0.00,,,0.02,meteohub,2013-02-06 23:07:00,
2013-02-06 16:12:00,31.5,18.0,24.05,West,270,27.0,34.0,57,0.00,,,0.02,meteohub,2013-02-06 23:12:00,
2013-02-06 16:17:00,31.3,16.5,24.04,NW,315,34.0,34.0,54,0.00,,,0.02,meteohub,2013-02-06 23:17:00,
2013-02-06 16:22:00,31.3,16.2,24.04,NW,315,35.0,35.0,53,0.00,,,0.02,meteohub,2013-02-06 23:22:00,
2013-02-06 16:27:00,31.1,16.3,24.05,West,270,30.0,36.0,54,0.00,,,0.02,meteohub,2013-02-06 23:27:00,
2013-02-06 16:32:00,30.2,15.6,24.05,West,270,35.0,37.0,54,0.00,,,0.02,meteohub,2013-02-06 23:32:00,
2013-02-06 16:37:00,30.2,16.3,24.06,WNW,293,29.0,37.0,56,0.00,,,0.02,meteohub,2013-02-06 23:37:00,
2013-02-06 16:42:00,30.6,16.0,24.05,West,270,29.0,37.0,54,0.00,,,0.02,meteohub,2013-02-06 23:42:00,
2013-02-06 16:47:00,30.9,15.8,24.05,NW,315,35.0,40.0,53,0.00,,,0.02,meteohub,2013-02-06 23:47:00,
2013-02-06 16:52:00,30.0,15.4,24.06,NW,315,29.0,40.0,54,0.00,,,0.02,meteohub,2013-02-06 23:52:00,
2013-02-06 16:57:00,30.4,16.2,24.06,West,270,30.0,40.0,55,0.00,,,0.02,meteohub,2013-02-06 23:57:00,
2013-02-06 17:02:00,30.2,16.0,24.06,West,270,28.0,40.0,55,0.00,,,0.02,meteohub,2013-02-07 00:02:00,
2013-02-06 17:07:00,30.2,16.0,24.05,West,270,28.0,32.0,55,0.00,,,0.00,meteohub,2013-02-07 00:07:00,
2013-02-06 17:12:00,29.3,16.7,24.06,West,270,30.0,33.0,59,0.00,,,0.00,meteohub,2013-02-07 00:12:00,
2013-02-06 17:17:00,28.8,17.1,24.06,NW,315,29.0,33.0,61,0.00,,,0.00,meteohub,2013-02-07 00:17:00,
2013-02-06 17:22:00,28.0,17.4,24.07,West,270,30.0,33.0,64,0.00,,,0.00,meteohub,2013-02-07 00:22:00,
2013-02-06 17:27:00,27.9,18.0,24.07,NW,315,28.0,32.0,66,0.00,,,0.00,meteohub,2013-02-07 00:27:00,
2013-02-06 17:32:00,27.9,18.0,24.07,West,270,31.0,32.0,66,0.00,,,0.00,meteohub,2013-02-07 00:32:00,
2013-02-06 17:37:00,27.9,18.0,24.06,West,270,32.0,36.0,66,0.00,,,0.00,meteohub,2013-02-07 00:37:00,
2013-02-06 17:42:00,27.7,18.1,24.07,NW,315,29.0,36.0,67,0.00,,,0.00,meteohub,2013-02-07 00:42:00,
2013-02-06 17:47:00,27.7,17.8,24.07,West,270,24.0,34.0,66,0.00,,,0.00,meteohub,2013-02-07 00:47:00,
2013-02-06 17:52:00,27.7,17.4,24.07,West,270,33.0,36.0,65,0.00,,,0.00,meteohub,2013-02-07 00:52:00,
2013-02-06 17:57:00,27.5,17.2,24.08,NW,315,27.0,38.0,65,0.00,,,0.00,meteohub,2013-02-07 00:57:00,
2013-02-06 18:02:00,27.3,17.4,24.08,WNW,293,23.0,38.0,66,0.00,,,0.00,meteohub,2013-02-07 01:02:00,
2013-02-06 18:07:00,27.3,17.4,24.08,WNW,293,23.0,38.0,66,0.00,,,0.00,meteohub,2013-02-07 01:07:00,
2013-02-06 18:12:00,27.7,17.4,24.08,West,270,34.0,34.0,65,0.00,,,0.00,meteohub,2013-02-07 01:12:00,
2013-02-06 18:17:00,27.7,17.8,24.08,West,270,30.0,37.0,66,0.00,,,0.00,meteohub,2013-02-07 01:17:00,
2013-02-06 18:22:00,27.5,17.2,24.08,West,270,30.0,37.0,65,0.00,,,0.00,meteohub,2013-02-07 01:22:00,
2013-02-06 18:27:00,27.9,16.5,24.08,West,270,36.0,36.0,62,0.00,,,0.00,meteohub,2013-02-07 01:27:00,
2013-02-06 18:32:00,27.9,16.2,24.08,West,270,41.0,41.0,61,0.00,,,0.00,meteohub,2013-02-07 01:32:00,
2013-02-06 18:37:00,27.9,15.8,24.09,West,270,37.0,41.0,60,0.00,,,0.00,meteohub,2013-02-07 01:37:00,
2013-02-06 18:42:00,27.7,16.0,24.08,West,270,33.0,41.0,61,0.00,,,0.00,meteohub,2013-02-07 01:42:00,
2013-02-06 18:47:00,27.7,15.6,24.08,West,270,35.0,41.0,60,0.00,,,0.00,meteohub,2013-02-07 01:47:00,
2013-02-06 18:52:00,27.7,15.3,24.08,West,270,33.0,38.0,59,0.00,,,0.00,meteohub,2013-02-07 01:52:00,
2013-02-06 18:57:00,27.9,15.1,24.08,West,270,39.0,39.0,58,0.00,,,0.00,meteohub,2013-02-07 01:57:00,
2013-02-06 19:02:00,27.7,15.3,24.09,NW,315,34.0,40.0,59,0.00,,,0.00,meteohub,2013-02-07 02:02:00,
2013-02-06 19:07:00,27.7,15.3,24.08,NW,315,34.0,40.0,59,0.00,,,0.00,meteohub,2013-02-07 02:07:00,
2013-02-06 19:12:00,27.9,14.2,24.09,NW,315,30.0,39.0,56,0.00,,,0.00,meteohub,2013-02-07 02:12:00,
2013-02-06 19:17:00,27.9,14.2,24.09,West,270,35.0,40.0,56,0.00,,,0.00,meteohub,2013-02-07 02:17:00,
2013-02-06 19:22:00,27.5,14.2,24.09,SW,225,33.0,40.0,57,0.00,,,0.00,meteohub,2013-02-07 02:22:00,
2013-02-06 19:27:00,27.5,14.2,24.09,West,270,37.0,40.0,57,0.00,,,0.00,meteohub,2013-02-07 02:27:00,
2013-02-06 19:32:00,27.7,14.0,24.09,West,270,34.0,48.0,56,0.00,,,0.00,meteohub,2013-02-07 02:32:00,
2013-02-06 19:37:00,27.7,14.0,24.09,West,270,29.0,48.0,56,0.00,,,0.00,meteohub,2013-02-07 02:37:00,
2013-02-06 19:42:00,27.7,14.0,24.09,NW,315,36.0,48.0,56,0.00,,,0.00,meteohub,2013-02-07 02:42:00,
2013-02-06 19:47:00,27.5,13.8,24.09,West,270,34.0,39.0,56,0.00,,,0.00,meteohub,2013-02-07 02:47:00,
2013-02-06 19:52:00,27.5,13.8,24.09,NW,315,32.0,39.0,56,0.00,,,0.00,meteohub,2013-02-07 02:52:00,
2013-02-06 19:57:00,27.5,13.5,24.09,West,270,37.0,39.0,55,0.00,,,0.00,meteohub,2013-02-07 02:57:00,
2013-02-06 20:02:00,27.5,13.5,24.09,West,270,30.0,37.0,55,0.00,,,0.00,meteohub,2013-02-07 03:02:00,
2013-02-06 20:07:00,27.5,13.5,24.09,West,270,30.0,37.0,55,0.00,,,0.00,meteohub,2013-02-07 03:07:00,
2013-02-06 20:12:00,27.7,13.3,24.09,NW,315,34.0,39.0,54,0.00,,,0.00,meteohub,2013-02-07 03:12:00,
2013-02-06 20:17:00,27.5,13.5,24.09,West,270,34.0,39.0,55,0.00,,,0.00,meteohub,2013-02-07 03:17:00,
2013-02-06 20:22:00,27.3,13.6,24.09,West,270,27.0,42.0,56,0.00,,,0.00,meteohub,2013-02-07 03:22:00,
2013-02-06 20:27:00,27.1,13.5,24.09,West,270,28.0,42.0,56,0.00,,,0.00,meteohub,2013-02-07 03:27:00,
2013-02-06 20:32:00,27.1,14.0,24.09,West,270,34.0,42.0,57,0.00,,,0.00,meteohub,2013-02-07 03:32:00,
2013-02-06 20:37:00,27.1,14.0,24.09,West,270,34.0,36.0,57,0.00,,,0.00,meteohub,2013-02-07 03:37:00,
2013-02-06 20:42:00,27.1,14.0,24.09,West,270,36.0,40.0,57,0.00,,,0.00,meteohub,2013-02-07 03:42:00,
2013-02-06 20:47:00,27.1,14.0,24.09,West,270,35.0,40.0,57,0.00,,,0.00,meteohub,2013-02-07 03:47:00,
2013-02-06 20:52:00,27.0,13.8,24.09,West,270,32.0,40.0,57,0.00,,,0.00,meteohub,2013-02-07 03:52:00,
2013-02-06 20:57:00,27.0,13.8,24.09,West,270,33.0,37.0,57,0.00,,,0.00,meteohub,2013-02-07 03:57:00,
2013-02-06 21:02:00,27.1,14.0,24.09,West,270,36.0,37.0,57,0.00,,,0.00,meteohub,2013-02-07 04:02:00,
2013-02-06 21:07:00,27.1,14.0,24.09,West,270,36.0,40.0,57,0.00,,,0.00,meteohub,2013-02-07 04:07:00,
2013-02-06 21:12:00,27.3,13.6,24.09,West,270,34.0,40.0,56,0.00,,,0.00,meteohub,2013-02-07 04:12:00,
2013-02-06 21:17:00,27.1,13.5,24.10,West,270,32.0,38.0,56,0.00,,,0.00,meteohub,2013-02-07 04:17:00,
2013-02-06 21:22:00,27.0,13.3,24.10,West,270,30.0,38.0,56,0.00,,,0.00,meteohub,2013-02-07 04:22:00,
2013-02-06 21:27:00,27.0,13.8,24.11,West,270,34.0,38.0,57,0.00,,,0.00,meteohub,2013-02-07 04:27:00,
2013-02-06 21:32:00,27.0,13.8,24.11,NW,315,31.0,40.0,57,0.00,,,0.00,meteohub,2013-02-07 04:32:00,
2013-02-06 21:37:00,27.0,14.2,24.12,SW,225,30.0,40.0,58,0.00,,,0.00,meteohub,2013-02-07 04:37:00,
2013-02-06 21:42:00,27.0,14.2,24.12,West,270,30.0,39.0,58,0.00,,,0.00,meteohub,2013-02-07 04:42:00,
2013-02-06 21:47:00,26.6,13.8,24.12,SW,225,29.0,36.0,58,0.00,,,0.00,meteohub,2013-02-07 04:47:00,
2013-02-06 21:52:00,26.6,13.8,24.11,West,270,28.0,36.0,58,0.00,,,0.00,meteohub,2013-02-07 04:52:00,
2013-02-06 21:57:00,26.6,13.8,24.11,West,270,31.0,35.0,58,0.00,,,0.00,meteohub,2013-02-07 04:57:00,
2013-02-06 22:02:00,26.6,13.5,24.11,NW,315,32.0,35.0,57,0.00,,,0.00,meteohub,2013-02-07 05:02:00,
2013-02-06 22:07:00,26.6,13.5,24.11,NW,315,32.0,33.0,57,0.00,,,0.00,meteohub,2013-02-07 05:07:00,
2013-02-06 22:12:00,26.4,13.6,24.11,West,270,34.0,34.0,58,0.00,,,0.00,meteohub,2013-02-07 05:12:00,
2013-02-06 22:17:00,26.2,13.8,24.12,West,270,31.0,34.0,59,0.00,,,0.00,meteohub,2013-02-07 05:17:00,
2013-02-06 22:22:00,26.1,13.6,24.12,West,270,28.0,34.0,59,0.00,,,0.00,meteohub,2013-02-07 05:22:00,
2013-02-06 22:27:00,26.1,13.6,24.11,West,270,30.0,35.0,59,0.00,,,0.00,meteohub,2013-02-07 05:27:00,
2013-02-06 22:32:00,26.1,14.0,24.12,West,270,27.0,35.0,60,0.00,,,0.00,meteohub,2013-02-07 05:32:00,
2013-02-06 22:37:00,26.1,14.0,24.12,North,0,29.0,35.0,60,0.00,,,0.00,meteohub,2013-02-07 05:37:00,
2013-02-06 22:47:00,26.1,13.6,24.11,West,270,31.0,36.0,59,0.00,,,0.00,meteohub,2013-02-07 05:47:00,
2013-02-06 22:52:00,25.9,13.8,24.11,West,270,30.0,36.0,60,0.00,,,0.00,meteohub,2013-02-07 05:52:00,
2013-02-06 22:57:00,25.9,13.8,24.12,West,270,27.0,36.0,60,0.00,,,0.00,meteohub,2013-02-07 05:57:00,
2013-02-06 23:02:00,26.1,14.0,24.12,West,270,30.0,35.0,60,0.00,,,0.00,meteohub,2013-02-07 06:02:00,
2013-02-06 23:07:00,26.1,14.0,24.11,West,270,30.0,34.0,60,0.00,,,0.00,meteohub,2013-02-07 06:07:00,
2013-02-06 23:12:00,26.1,14.0,24.11,West,270,34.0,34.0,60,0.00,,,0.00,meteohub,2013-02-07 06:12:00,
2013-02-06 23:17:00,26.1,14.5,24.11,West,270,34.0,34.0,61,0.00,,,0.00,meteohub,2013-02-07 06:17:00,
2013-02-06 23:22:00,25.9,14.4,24.12,West,270,31.0,34.0,61,0.00,,,0.00,meteohub,2013-02-07 06:22:00,
2013-02-06 23:27:00,25.9,14.4,24.12,NW,315,29.0,35.0,61,0.00,,,0.00,meteohub,2013-02-07 06:27:00,
2013-02-06 23:32:00,26.1,14.5,24.11,West,270,30.0,35.0,61,0.00,,,0.00,meteohub,2013-02-07 06:32:00,
2013-02-06 23:37:00,26.2,14.5,24.12,West,270,30.0,35.0,61,0.00,,,0.00,meteohub,2013-02-07 06:37:00,
2013-02-06 23:42:00,26.1,14.5,24.12,West,270,28.0,31.0,61,0.00,,,0.00,meteohub,2013-02-07 06:42:00,
2013-02-06 23:47:00,26.1,14.5,24.12,West,270,30.0,31.0,61,0.00,,,0.00,meteohub,2013-02-07 06:47:00,
2013-02-06 23:52:00,26.1,14.5,24.11,West,270,33.0,33.0,61,0.00,,,0.00,meteohub,2013-02-07 06:52:00,
2013-02-06 23:57:00,26.1,14.5,24.12,West,270,30.0,34.0,61,0.00,,,0.00,meteohub,2013-02-07 06:57:00,